Simultaneous Nadir Overpasses (SNOs) Predictions

Prediction of SNOs between NOAA-20 and AQUA Satellite Orbit:

Table of predicted SNOs for the next 14.0 days since TLE Epoch: 10/4/2019
Index Date (NOAA-20) Time (NOAA-20) Lat,Lon (NOAA-20) SZA (NOAA-20 ) Date (AQUA) Time (AQUA) Lat,Lon (AQUA) SZA (AQUA ) Distance(km) Time Diff (sec)
1 10/06/2019 22:12:46 75.59, 84.42 102.21 10/06/2019 22:13:27 75.59, 84.41 102.17 0.38 41
2 10/06/2019 23:03:13 -76.46,-105.30 78.80 10/06/2019 23:02:37 -76.47,-105.23 78.79 1.81 36
3 10/09/2019 14:29:32 76.05,-158.30 102.63 10/09/2019 14:29:47 76.04,-158.36 102.64 1.72 15
4 10/09/2019 15:20:01 -76.82, 11.82 78.27 10/09/2019 15:18:59 -76.82, 11.85 78.22 0.70 62
5 10/12/2019 05:56:04 -75.12, 147.21 75.38 10/12/2019 05:57:10 -75.12, 147.21 75.44 0.19 66
6 10/12/2019 06:46:27 76.09, -42.40 103.54 10/12/2019 06:46:15 76.10, -42.31 103.53 2.48 12
7 10/14/2019 22:12:48 -75.68, -95.33 75.07 10/14/2019 22:13:28 -75.67, -95.37 75.09 1.38 40
8 10/14/2019 23:03:12 76.58, 75.14 103.90 10/14/2019 23:02:34 76.58, 75.15 103.93 0.36 38
9 10/17/2019 14:29:41 -75.76, 20.71 74.23 10/17/2019 14:29:54 -75.77, 20.79 74.27 2.52 13




NCC Satellite Simultaneous Nadir Overpasses (SNOs) Prediction Service
